Location: Brachstadt
(48.6975°N, 10.6755°E)
Time: 05:51:28
(UTC+00:00)

Cosmos 2266 Rocket - Pass Details

Date: 18 September 2020
Orbit: 934 x 1008 km, 82.9° (Epoch: 22 October)

Event Time Altitude Azimuth Distance (km) Brightness Sun altitude
Rises 20:58:12 0° 350° (N) 3,617 7.8 -32.2°
Reaches altitude 10° 21:00:42 10° 350° (N) 2,663 6.9 -32.5°
Enters shadow 21:05:34 60° 344° (NNW) 1,068 4.3 -33.0°
